Theta_e
309 309 309 309 310 310 310 310 310 310 310 310 311 311 311 311 310 304 304 309 310 315 316 306 304 303 303 300 302 301 291 289 291 292 293 297 295 300 303 301 303 310 310 317 321
309 309 309 309 309 309 309 309 309 310 310 310 310 310 311 310 302 303 310 312 312 313 304 301 298 299 296 297 297 293 287 289 294 293 293 295 294 296 296 300 301 308 313 320 321
308 308 308 308 308 309 309 309 309 309 308 308 309 309 310 308 297 300 309 311 311 309 304 303 301 298 294 295 294 293 288 293 294 296 296 295 295 297 295 294 299 304 311 316 318
307 307 308 308 308 308 308 308 308 307 308 308 308 309 309 302 285 299 310 310 310 305 302 300 298 294 292 290 294 289 293 294 295 296 295 293 295 293 295 293 301 305 314 315 315
307 306 307 307 308 308 308 308 307 307 307 307 308 309 303 293 292 304 311 309 306 303 298 297 294 293 289 291 292 290 291 294 294 295 293 295 292 292 292 294 297 299 300 309 313
306 307 307 307 307 307 307 306 306 306 307 306 306 308 298 287 302 303 301 305 304 301 297 298 297 297 292 291 290 292 292 292 293 292 293 291 291 292 291 295 295 296 296 296 299
307 307 307 307 307 307 306 306 306 306 307 305 305 302 294 291 302 302 300 302 305 302 297 299 301 296 295 291 295 293 288 290 291 291 291 292 288 288 292 294 294 294 294 297 297
307 307 306 306 306 306 305 306 305 305 305 305 305 300 291 301 302 299 300 300 305 304 300 301 300 298 294 295 292 288 288 282 290 291 292 290 283 291 294 292 291 292 292 294 296
307 306 306 306 305 305 305 307 304 304 304 305 300 297 287 303 296 298 299 296 299 302 302 302 299 292 293 286 283 285 280 282 286 293 292 289 285 291 294 293 292 292 292 293 294
307 306 305 305 305 304 306 307 305 304 302 300 298 292 293 290 296 297 299 298 295 296 296 296 293 287 285 282 275 278 280 283 283 289 290 287 286 289 293 292 290 291 290 291 291
305 305 304 305 304 304 300 297 291 291 294 288 289 290 292 296 299 294 296 295 294 291 283 289 283 281 284 285 285 283 281 280 283 287 284 284 284 286 289 290 289 290 290 290 290
304 305 305 305 304 303 299 290 291 292 284 292 293 293 295 296 289 292 296 287 287 282 284 283 279 286 288 286 284 283 280 280 283 286 284 283 282 285 288 289 290 289 288 290 293
305 305 304 304 304 300 295 293 299 297 286 286 290 290 291 289 285 286 291 286 282 280 281 278 282 286 284 283 281 281 280 280 280 284 285 282 280 283 287 289 290 291 291 291 292
304 305 304 303 298 297 294 298 299 299 281 280 284 289 288 288 284 291 291 287 284 279 280 280 284 281 281 281 283 277 283 282 281 279 274 282 272 279 283 285 287 289 290 291 292
304 304 304 303 297 293 296 299 297 293 269 281 283 292 288 283 284 286 292 286 280 280 280 277 279 279 278 279 282 278 285 282 281 278 277 277 274 276 283 282 284 286 288 288 289
304 304 302 298 299 298 300 299 293 279 267 277 283 281 281 284 283 285 285 288 286 281 281 280 284 282 281 283 282 283 280 281 280 277 271 275 275 273 278 282 285 285 285 287 288
304 303 299 299 292 300 300 293 278 270 278 276 277 280 278 278 279 280 279 278 276 270 272 277 278 281 284 279 281 280 275 269 268 269 269 276 275 276 282 284 285 284 284 285 286
303 301 299 298 300 300 295 285 268 272 275 280 279 278 275 278 278 278 277 274 279 277 273 270 268 277 282 279 276 276 276 269 263 267 269 275 272 276 282 285 286 285 284 285 284
303 300 298 299 301 298 287 274 273 276 278 276 277 274 275 277 276 276 274 274 277 277 269 268 271 279 280 281 280 276 271 276 269 268 267 270 276 282 282 281 282 282 283 282 284
297 295 294 299 300 294 282 277 274 280 280 279 272 274 270 274 272 273 273 277 277 279 277 274 269 276 278 280 280 277 279 269 271 261 261 267 270 271 277 279 280 280 281 282 283
296 286 294 298 297 285 276 276 278 281 281 278 275 273 274 273 273 273 273 277 280 278 279 276 273 272 276 274 273 274 272 274 273 270 264 263 267 276 280 282 281 283 284 284 283
291 281 294 297 283 282 277 276 281 280 282 280 279 277 274 275 271 272 273 276 281 280 274 277 275 268 271 278 279 277 274 273 266 266 269 269 268 280 280 281 283 282 283 283 284
285 285 293 293 277 278 278 276 279 279 279 279 275 279 279 274 267 274 275 280 281 278 275 277 267 263 267 272 276 274 275 276 272 272 268 265 267 280 280 280 281 280 281 282 283
284 281 284 286 285 280 279 276 274 281 280 281 279 280 277 272 277 272 275 278 281 280 283 280 269 268 264 268 272 271 274 275 273 267 269 269 271 275 278 278 280 279 280 281 281
285 282 284 277 279 280 278 276 275 274 280 281 277 277 277 273 273 273 276 277 279 282 279 275 267 270 272 274 274 273 273 274 272 273 269 271 271 275 277 278 280 281 282 283 283
284 282 281 282 283 280 280 277 276 278 277 276 275 278 278 274 275 274 276 276 275 278 277 277 269 272 268 273 273 271 272 272 272 273 273 273 273 279 281 281 280 282 282 282 282
285 285 285 282 281 278 278 278 278 280 281 281 280 278 276 278 281 282 282 281 279 275 274 272 269 265 264 270 270 264 269 271 272 273 273 269 274 279 279 280 280 281 281 282 283
Wind_Speed
19 19 19 19 20 20 20 21 21 21 21 22 21 22 21 22 23 11 11 11 14 21 22 12 11 7 6 5 2 5 4 8 11 12 7 6 4 2 7 2 2 6 7 11 11
19 20 20 21 22 22 22 21 22 22 22 21 22 21 22 19 16 13 11 16 19 20 15 12 11 12 5 8 5 5 4 9 11 5 7 4 1 0 3 5 5 9 6 9 10
19 20 21 21 22 22 23 22 22 22 22 22 22 20 19 15 5 7 15 18 19 17 12 11 8 9 7 8 7 4 9 12 13 6 8 8 5 3 4 5 4 13 13 8 6
18 19 21 22 23 24 24 24 23 23 23 20 17 20 17 8 4 12 20 17 16 12 10 9 7 4 5 7 10 12 13 10 11 6 5 5 9 4 6 3 10 11 10 8 6
18 19 20 21 22 24 25 25 25 25 21 17 15 15 7 4 8 14 18 13 9 10 8 8 6 6 7 7 9 14 6 12 9 5 2 8 7 8 9 4 7 9 3 7 8
18 19 21 22 23 25 25 25 24 21 16 15 14 12 4 9 8 12 14 9 11 10 6 5 6 6 7 8 7 7 8 10 8 5 4 3 9 7 5 9 9 4 7 6 7
19 20 21 23 24 26 25 25 22 15 14 14 8 4 10 8 8 9 13 9 6 8 6 4 5 6 7 5 9 7 8 11 10 6 6 7 10 11 11 10 9 9 10 10 9
18 19 21 23 25 26 26 24 16 14 13 9 8 5 6 4 5 11 10 11 7 5 3 5 5 5 2 8 5 8 11 9 4 14 11 7 12 7 16 14 14 12 10 9 10
17 19 21 23 25 24 26 23 11 14 7 10 5 4 8 11 14 8 7 10 11 4 1 3 2 2 2 3 4 7 12 15 15 13 13 17 7 7 8 10 13 10 10 10 9
17 19 20 22 23 22 25 19 9 9 3 4 10 2 12 14 12 8 4 7 9 8 4 2 2 1 3 4 10 9 12 15 15 10 12 12 13 6 12 9 9 8 6 6 5
18 19 20 21 19 19 17 5 6 3 10 7 6 5 9 14 5 11 17 5 7 2 8 3 4 5 9 6 9 10 11 12 14 8 3 9 13 12 12 14 11 9 7 7 5
17 19 21 21 17 14 12 7 8 3 8 5 7 6 4 9 9 13 15 10 9 9 11 7 3 8 8 7 7 8 10 14 13 16 13 14 12 12 13 18 17 13 10 7 11
16 18 21 22 15 4 10 10 6 2 5 3 2 4 6 10 8 13 12 11 10 9 9 9 5 8 8 9 10 10 10 13 14 12 11 7 16 14 16 23 23 20 14 11 12
16 16 19 24 4 8 5 10 7 2 3 4 3 4 8 11 1 6 8 7 6 10 11 7 3 8 9 9 7 11 10 13 13 8 7 7 15 8 11 14 18 21 17 17 17
14 16 18 12 6 5 6 8 5 3 3 4 3 3 12 5 7 2 3 5 8 12 6 8 16 9 10 9 8 8 6 8 9 10 10 12 10 4 11 15 10 8 6 5 8
12 14 17 5 5 7 7 8 3 2 4 2 3 8 11 4 8 6 10 7 7 5 10 12 9 7 8 9 10 12 8 10 12 7 7 15 13 5 11 16 4 9 9 9 8
11 12 8 5 5 8 7 3 2 2 1 3 4 7 11 4 7 7 10 9 4 5 6 12 10 6 2 7 11 7 4 4 4 7 7 7 10 14 5 7 8 10 9 8 8
9 9 2 2 5 7 4 2 1 0 2 3 4 10 5 6 5 9 7 7 7 7 8 6 5 6 2 4 5 11 7 4 6 4 7 9 5 3 6 7 8 12 9 8 7
9 2 2 2 4 4 2 2 2 2 3 5 8 3 3 2 2 5 5 3 4 4 2 4 5 15 15 9 2 6 7 5 5 7 5 6 10 5 6 7 8 8 8 7 6
3 3 2 2 4 2 0 4 1 2 1 0 2 2 3 4 4 5 3 2 2 3 2 5 9 8 8 2 7 8 8 5 3 4 5 6 11 9 2 7 5 5 6 2 2
2 2 2 2 3 2 2 2 2 5 3 3 3 3 5 5 2 4 5 7 5 2 5 3 6 7 10 5 10 8 3 3 6 7 8 12 7 9 7 6 3 2 6 8 5
2 3 1 3 2 0 2 4 2 5 7 5 4 6 5 6 4 4 7 5 3 4 3 7 4 6 13 16 15 12 12 9 4 8 8 13 13 13 16 4 8 8 8 5 5
2 3 0 3 4 5 3 3 4 5 8 7 4 8 6 3 3 8 9 5 4 3 2 2 3 5 11 7 11 4 6 7 6 9 17 14 11 8 13 17 13 11 8 7 9
1 3 2 2 2 3 6 5 5 6 9 5 6 8 7 6 10 7 7 5 2 4 12 8 5 8 13 15 12 20 14 12 10 6 12 15 17 17 15 15 17 10 7 7 8
3 5 2 5 7 11 6 4 9 7 7 7 5 14 10 6 9 16 18 17 16 17 9 6 15 10 21 20 18 21 24 17 17 20 18 19 18 22 17 16 15 15 15 15 15
4 4 3 4 5 14 17 11 15 14 9 8 15 15 15 18 16 9 9 8 10 6 7 6 17 15 22 16 16 24 25 22 24 23 22 21 27 21 21 19 17 20 20 16 10
3 1 3 8 7 11 14 18 17 17 14 20 17 16 18 25 20 18 16 16 10 7 7 6 4 3 18 15 14 18 15 18 19 23 20 22 23 17 18 17 14 15 10 9 13
Wind_Direction
11 8 5 2 358 356 354 352 348 346 344 342 341 337 333 330 330 316 48 353 338 332 315 310 306 256 292 256 215 299 271 245 248 258 264 86 142 130 2 11 35 50 53 110 131
10 5 2 360 356 354 351 348 346 344 341 340 337 334 332 331 321 62 5 353 343 337 334 338 334 337 291 253 227 212 224 256 272 330 339 28 87 297 161 236 129 95 82 114 137
8 3 359 356 352 349 348 346 344 343 340 335 334 333 332 326 281 52 356 345 340 331 322 299 291 294 279 273 230 231 241 275 283 19 33 341 6 314 339 268 196 170 147 149 161
6 0 356 354 351 348 345 343 342 340 336 334 334 335 328 302 64 1 347 338 327 328 328 328 329 268 248 250 244 261 262 283 284 51 9 318 322 312 248 67 61 46 129 141 169
4 0 356 352 348 345 344 343 342 337 339 338 342 344 330 24 20 350 348 350 343 340 337 345 314 306 277 314 298 271 281 289 297 59 350 313 296 284 295 264 124 117 49 165 178
0 355 352 350 346 343 341 341 336 334 341 347 340 324 328 64 333 353 348 353 360 351 347 335 343 328 291 278 311 16 332 316 307 284 278 240 270 265 278 292 303 287 177 235 230
357 353 350 348 345 341 341 340 339 340 336 348 335 334 57 25 341 351 347 344 8 355 331 12 337 305 348 294 357 342 306 293 266 261 257 287 251 240 257 269 254 250 246 212 228
356 352 351 349 347 340 339 336 340 329 342 324 303 312 65 10 294 346 341 346 349 15 320 304 307 292 254 328 293 285 270 271 254 236 228 160 250 265 226 235 240 240 253 237 211
351 351 350 350 347 342 336 329 323 307 295 283 287 342 39 1 9 353 313 337 333 357 285 332 289 297 263 280 281 258 266 275 283 275 255 200 244 241 257 271 245 229 236 232 226
357 351 351 351 349 346 334 323 296 308 13 233 14 245 26 352 332 1 358 322 313 298 177 239 241 252 224 244 240 252 240 250 264 270 264 281 251 273 278 289 279 290 263 270 128
355 352 349 349 353 355 349 348 2 52 10 43 2 21 347 335 334 20 346 324 325 8 9 12 328 290 352 329 303 303 299 296 293 292 311 286 293 287 300 298 286 258 266 295 273
351 349 346 346 345 345 19 56 49 330 316 351 14 28 29 340 334 11 356 3 349 356 5 353 254 17 343 321 319 299 289 282 277 274 279 282 277 280 279 282 282 282 282 262 275
345 345 345 339 332 327 54 40 357 341 259 322 39 349 333 332 333 354 2 335 327 331 360 320 355 353 313 310 306 293 269 272 282 297 286 280 272 265 252 244 245 253 261 266 264
341 343 344 336 305 322 60 356 345 295 288 29 358 66 343 315 219 30 18 337 324 343 344 304 13 345 320 309 318 290 296 301 296 294 263 244 275 259 290 303 230 238 242 242 245
343 342 342 337 313 6 338 330 340 249 350 2 8 316 338 25 328 104 39 348 326 331 322 288 319 339 319 295 331 302 352 327 310 298 297 270 277 231 245 264 258 203 214 65 58
342 346 339 17 281 21 326 312 255 248 254 359 328 351 352 340 350 326 352 319 288 292 289 281 275 275 262 313 294 283 283 270 257 244 241 242 234 257 231 242 245 87 61 61 52
336 343 339 301 330 329 310 250 298 201 266 355 345 346 328 349 318 7 337 327 11 353 338 317 283 265 130 319 294 262 272 287 240 215 237 354 239 237 289 60 99 104 94 78 53
328 328 328 317 324 321 291 278 234 345 268 27 334 315 289 25 344 353 321 345 47 355 315 331 330 14 55 296 305 304 268 304 323 297 332 286 269 227 78 62 64 90 99 94 81
307 249 249 56 321 305 347 270 274 109 24 352 314 327 337 330 355 321 323 277 21 33 16 325 258 339 308 274 273 322 307 347 305 279 276 246 264 246 124 81 76 96 97 97 74
311 310 278 360 323 296 160 251 212 323 149 174 283 130 291 349 357 351 289 154 254 135 124 298 297 269 299 15 255 228 266 309 294 302 274 256 273 284 116 97 94 106 109 103 252
273 351 88 313 275 55 227 251 256 219 190 212 241 264 244 286 223 288 255 296 275 101 156 247 230 283 296 230 263 284 220 280 259 267 268 280 274 288 111 153 224 311 288 285 288
75 259 101 280 237 182 239 201 254 223 194 245 260 265 251 282 275 259 241 236 194 328 291 281 293 282 270 282 280 277 272 268 221 258 259 260 263 306 309 267 214 241 227 245 266
225 250 72 290 246 200 147 265 267 224 204 186 235 223 200 240 257 250 254 256 284 297 269 348 300 328 307 291 254 243 320 292 258 256 259 261 271 255 290 300 290 284 282 268 238
187 251 180 205 297 288 241 209 243 224 244 231 231 222 246 237 222 256 243 258 217 222 267 294 215 216 254 264 305 292 271 253 267 261 272 259 275 277 275 273 278 284 295 302 303
192 239 241 190 204 216 214 219 200 231 212 213 238 227 213 236 237 235 255 263 252 255 257 186 261 244 262 263 271 276 276 280 266 264 255 264 267 271 270 269 283 294 297 285 280
191 215 183 256 236 203 213 204 221 235 176 217 228 222 226 231 219 235 242 272 267 243 253 229 261 260 279 273 275 278 270 269 264 268 271 259 259 263 263 269 270 269 268 268 261
205 283 221 190 201 217 215 220 218 226 229 233 228 228 239 234 234 242 253 267 248 234 212 233 244 230 260 279 302 282 264 257 258 257 255 260 267 272 271 270 270 278 272 287 287